Flag for Canada Weather past 2 weeks in Brampton, Ontario, Canada

Now
50 °F

Broken clouds.


Feels Like: 44 °F
Forecast: 38 / 53 °F
Wind: 20 mph from Northwest

Location: Toronto Pearson International Airport

Current Time: Apr 27, 2015 at 3:41:31 PM

Latest Report: Apr 27, 2015 at 3:00 PM


Visibility: 15 mi

Pressure: 29.92 "Hg

Humidity: 62%

Dew point: 37 °F

Location of BramptonLocation

Historic Weather in Brampton — Graph

°F

Brampton temperature yesterday

Maximum temperature yesterday: 54 °F (at 2:00 PM)
Minimum temperature yesterday: 36 °F (at 2:00 AM)
Average temperature yesterday: 45 °F

Past Weeks' High & Low Weather Summary

 TemperatureHumidityPressure
High73 °F (Apr 13, 5:00 PM)100% (Apr 17, 4:00 AM)30.42 "Hg (Apr 17, 4:00 AM)
Low27 °F (Apr 25, 6:00 AM)19% (Apr 14, 3:00 PM)29.36 "Hg (Apr 20, 5:00 PM)
Average47 °F60%29.94 "Hg
* Reported Apr 12 2:00 PM — Apr 27 2:00 PM, Brampton, Weather by CustomWeather, © 2015

Note: Actual official high and low records may vary slightly from our data, if they occured in-between our weather recording intervals... More about our weather records

Advertising

Brampton weather history for previous 24 hours

 ConditionsComfort  
Time TempWeatherWind HumidityBarometerVisibility
2:00 PM
Mon, Apr 27
48 °FOvercast.12 mph66%29.91 "Hg15 mi
1:00 PM46 °FPartly sunny.17 mph71%29.91 "Hg15 mi
12:00 PM48 °FPartly sunny.17 mph66%29.90 "Hg15 mi
11:00 AM45 °FPartly sunny.18 mph71%29.88 "Hg15 mi
10:00 AM41 °FOvercast.14 mph76%29.88 "Hg15 mi
9:00 AM39 °FOvercast.16 mph81%29.87 "Hg15 mi
8:00 AM39 °FOvercast.20 mph87%29.85 "Hg15 mi
7:00 AM39 °FLight rain. Mostly cloudy.16 mph87%29.84 "Hg15 mi
6:49 AM39 °FLight rain. Mostly cloudy.16 mph87%29.84 "Hg15 mi
6:00 AM39 °FLight rain. Overcast.15 mph87%29.83 "Hg15 mi
5:00 AM41 °FLight rain. Overcast.15 mph87%29.82 "Hg10 mi
4:00 AM41 °FLight rain. Passing clouds.14 mph87%29.81 "Hg15 mi
3:00 AM43 °FPartly cloudy.13 mph76%29.80 "Hg15 mi
2:00 AM45 °FPartly cloudy.15 mph71%29.81 "Hg15 mi
1:00 AM45 °FPassing clouds.13 mph66%29.81 "Hg15 mi
12:00 AM46 °FPartly cloudy.15 mph62%29.81 "Hg15 mi
11:00 PM
Sun, Apr 26
46 °FPassing clouds.12 mph57%29.83 "Hg15 mi
10:00 PM46 °FPassing clouds.13 mph57%29.83 "Hg15 mi
9:00 PM46 °FPartly sunny.18 mph57%29.84 "Hg15 mi
8:00 PM48 °FPartly sunny.16 mph54%29.84 "Hg15 mi
7:00 PM50 °FScattered clouds.15 mph50%29.83 "Hg15 mi
6:00 PM52 °FBroken clouds.18 mph47%29.83 "Hg15 mi
5:00 PM52 °FPartly sunny.18 mph47%29.82 "Hg15 mi
4:00 PM54 °FBroken clouds.18 mph47%29.83 "Hg15 mi
3:00 PM54 °FBroken clouds.16 mph47%29.83 "Hg15 mi
Weather by CustomWeather, © 2015

See weather overviewHow to use our weather pages